• In Portugal
  • List of Countries
  • For 7 days
  • Water Temperature
  • Satellite Maps
  • Weather Map
  • Weather Widgets
  • user-avatar
    Login

    Hourly Weather Rawson

    Today, 16 December, Saturday

    Time Temperature Precipitation Wind Pressure Humidity
    00:00 +27°C° 0 mm 10 mps 745 mmHg 27%
    01:00 +26°C° 0 mm 10 mps 745 mmHg 28%
    02:00 +24°C° 0 mm 8 mps 744 mmHg 31%
    03:00 +24°C° 0 mm 7 mps 744 mmHg 32%
    04:00 +23°C° 0 mm 7 mps 744 mmHg 33%
    05:00 +23°C° 0 mm 7 mps 744 mmHg 34%
    06:00 +22°C° 0 mm 7 mps 744 mmHg 34%
    07:00 +21°C° 0 mm 8 mps 744 mmHg 34%
    08:00 +21°C° 0 mm 8 mps 744 mmHg 34%
    09:00 +18°C° 0.7 mm 9 mps 745 mmHg 39%
    10:00 +15°C° 0.7 mm 9 mps 746 mmHg 44%
    11:00 +12°C° 0.7 mm 9 mps 747 mmHg 49%
    12:00 +12°C° 0.6 mm 8 mps 747 mmHg 45%
    13:00 +14°C° 0.6 mm 7 mps 748 mmHg 41%
    14:00 +14°C° 0.6 mm 6 mps 749 mmHg 37%
    15:00 +15°C° 0 mm 6 mps 749 mmHg 31%
    16:00 +17°C° 0 mm 6 mps 749 mmHg 24%
    17:00 +19°C° 0 mm 5 mps 749 mmHg 18%
    18:00 +19°C° 0 mm 5 mps 749 mmHg 20%
    19:00 +17°C° 0 mm 5 mps 750 mmHg 22%
    20:00 +17°C° 0 mm 5 mps 751 mmHg 24%
    21:00 +17°C° 0 mm 4 mps 752 mmHg 28%
    22:00 +16°C° 0 mm 3 mps 753 mmHg 33%
    23:00 +16°C° 0 mm 2 mps 754 mmHg 37%

    Tomorrow, 17 December, Sunday

    Time Temperature Precipitation Wind Pressure Humidity
    00:00 +14°C° 0 mm 3 mps 755 mmHg 35%
    01:00 +14°C° 0 mm 4 mps 756 mmHg 33%
    02:00 +14°C° 0 mm 5 mps 757 mmHg 31%
    03:00 +13°C° 0 mm 6 mps 758 mmHg 30%
    04:00 +12°C° 0 mm 7 mps 759 mmHg 30%
    05:00 +12°C° 0 mm 8 mps 760 mmHg 30%
    06:00 +12°C° 0 mm 8 mps 760 mmHg 27%
    07:00 +14°C° 0 mm 7 mps 761 mmHg 25%
    08:00 +15°C° 0 mm 7 mps 762 mmHg 22%
    09:00 +16°C° 0 mm 6 mps 762 mmHg 21%
    10:00 +17°C° 0 mm 5 mps 762 mmHg 20%
    11:00 +19°C° 0 mm 4 mps 762 mmHg 18%
    12:00 +20°C° 0 mm 4 mps 762 mmHg 17%
    13:00 +21°C° 0 mm 4 mps 762 mmHg 16%
    14:00 +22°C° 0 mm 5 mps 761 mmHg 15%
    15:00 +22°C° 0 mm 5 mps 761 mmHg 14%
    16:00 +23°C° 0 mm 6 mps 760 mmHg 13%
    17:00 +24°C° 0 mm 6 mps 759 mmHg 12%
    18:00 +23°C° 0 mm 7 mps 759 mmHg 14%
    19:00 +22°C° 0 mm 7 mps 759 mmHg 17%
    20:00 +22°C° 0 mm 8 mps 759 mmHg 19%
    21:00 +21°C° 0 mm 9 mps 758 mmHg 21%
    22:00 +21°C° 0 mm 10 mps 758 mmHg 23%
    23:00 +19°C° 0 mm 11 mps 758 mmHg 24%

    Day after tomorrow, 18 December, Monday

    Time Temperature Precipitation Wind Pressure Humidity
    00:00 +19°C° 0 mm 10 mps 758 mmHg 22%
    01:00 +21°C° 0 mm 9 mps 758 mmHg 20%
    02:00 +21°C° 0 mm 9 mps 758 mmHg 17%
    03:00 +20°C° 0 mm 8 mps 758 mmHg 21%
    04:00 +18°C° 0 mm 7 mps 758 mmHg 25%
    05:00 +17°C° 0 mm 6 mps 758 mmHg 29%
    06:00 +19°C° 0 mm 6 mps 758 mmHg 27%
    07:00 +20°C° 0 mm 5 mps 758 mmHg 25%
    08:00 +21°C° 0 mm 5 mps 759 mmHg 24%
    09:00 +22°C° 0 mm 4 mps 759 mmHg 22%
    10:00 +24°C° 0 mm 3 mps 758 mmHg 20%
    11:00 +25°C° 0 mm 3 mps 758 mmHg 18%
    12:00 +27°C° 0 mm 3 mps 758 mmHg 17%
    13:00 +28°C° 0 mm 4 mps 758 mmHg 16%
    14:00 +29°C° 0 mm 5 mps 757 mmHg 14%
    15:00 +30°C° 0 mm 6 mps 757 mmHg 14%
    16:00 +30°C° 0 mm 6 mps 756 mmHg 14%
    17:00 +30°C° 0 mm 7 mps 755 mmHg 13%
    18:00 +29°C° 0 mm 7 mps 756 mmHg 15%
    19:00 +28°C° 0 mm 7 mps 756 mmHg 17%
    20:00 +27°C° 0 mm 7 mps 756 mmHg 19%
    21:00 +26°C° 0 mm 7 mps 756 mmHg 23%
    22:00 +24°C° 0 mm 7 mps 756 mmHg 27%
    23:00 +22°C° 0 mm 6 mps 756 mmHg 31%

    19 December, Tuesday

    Time Temperature Precipitation Wind Pressure Humidity
    00:00 +22°C° 0 mm 5 mps 756 mmHg 33%
    01:00 +22°C° 0 mm 4 mps 756 mmHg 34%
    02:00 +22°C° 0 mm 3 mps 756 mmHg 36%
    03:00 +22°C° 0 mm 4 mps 756 mmHg 33%
    04:00 +21°C° 0 mm 5 mps 757 mmHg 30%
    05:00 +21°C° 0 mm 7 mps 757 mmHg 28%
    06:00 +23°C° 0 mm 6 mps 758 mmHg 26%
    07:00 +24°C° 0 mm 6 mps 758 mmHg 25%
    08:00 +26°C° 0 mm 5 mps 758 mmHg 23%
    09:00 +27°C° 0 mm 5 mps 758 mmHg 22%
    10:00 +28°C° 0 mm 4 mps 758 mmHg 20%
    11:00 +30°C° 0 mm 3 mps 758 mmHg 19%
    12:00 +30°C° 0 mm 4 mps 758 mmHg 18%
    13:00 +32°C° 0 mm 5 mps 757 mmHg 18%
    14:00 +33°C° 0 mm 5 mps 756 mmHg 17%
    15:00 +33°C° 0 mm 6 mps 756 mmHg 17%
    16:00 +33°C° 0 mm 6 mps 755 mmHg 16%
    17:00 +34°C° 0 mm 7 mps 755 mmHg 16%
    18:00 +32°C° 0 mm 8 mps 755 mmHg 17%
    19:00 +31°C° 0 mm 8 mps 754 mmHg 19%
    20:00 +29°C° 0 mm 9 mps 754 mmHg 21%
    21:00 +28°C° 0 mm 8 mps 754 mmHg 26%
    22:00 +27°C° 0 mm 8 mps 754 mmHg 30%
    23:00 +24°C° 0 mm 7 mps 754 mmHg 34%

    20 December, Wednesday

    Time Temperature Precipitation Wind Pressure Humidity
    00:00 +24°C° 0.1 mm 6 mps 753 mmHg 38%
    01:00 +25°C° 0.1 mm 5 mps 753 mmHg 41%
    02:00 +23°C° 0.1 mm 4 mps 752 mmHg 45%
    03:00 +24°C° 0 mm 3 mps 752 mmHg 45%
    04:00 +24°C° 0 mm 2 mps 751 mmHg 46%
    05:00 +23°C° 0 mm 1 mps 751 mmHg 47%
    06:00 +25°C° 0 mm 2 mps 751 mmHg 41%
    07:00 +27°C° 0 mm 3 mps 750 mmHg 35%
    08:00 +29°C° 0 mm 3 mps 750 mmHg 29%
    09:00 +30°C° 0 mm 4 mps 749 mmHg 26%
    10:00 +33°C° 0 mm 5 mps 748 mmHg 23%
    11:00 +34°C° 0 mm 5 mps 747 mmHg 21%
    12:00 +36°C° 0 mm 7 mps 747 mmHg 18%
    13:00 +38°C° 0 mm 9 mps 746 mmHg 16%
    14:00 +39°C° 0 mm 11 mps 745 mmHg 13%
    15:00 +38°C° 0 mm 11 mps 745 mmHg 17%
    16:00 +36°C° 0 mm 11 mps 745 mmHg 20%
    17:00 +34°C° 0 mm 11 mps 745 mmHg 24%
    18:00 +33°C° 0.1 mm 10 mps 746 mmHg 22%
    19:00 +32°C° 0.1 mm 9 mps 746 mmHg 21%
    20:00 +31°C° 0.1 mm 9 mps 747 mmHg 20%
    21:00 +29°C° 0 mm 9 mps 748 mmHg 18%
    22:00 +27°C° 0 mm 9 mps 748 mmHg 17%
    23:00 +24°C° 0 mm 9 mps 749 mmHg 15%

    21 December, Thursday

    Time Temperature Precipitation Wind Pressure Humidity
    00:00 +23°C° 0 mm 8 mps 749 mmHg 17%
    01:00 +21°C° 0 mm 7 mps 750 mmHg 20%
    02:00 +20°C° 0 mm 6 mps 750 mmHg 22%
    03:00 +19°C° 0 mm 6 mps 751 mmHg 24%
    04:00 +17°C° 0 mm 6 mps 751 mmHg 26%
    05:00 +17°C° 0 mm 7 mps 752 mmHg 28%
    06:00 +17°C° 0 mm 8 mps 752 mmHg 26%
    07:00 +18°C° 0 mm 9 mps 753 mmHg 24%
    08:00 +18°C° 0 mm 11 mps 753 mmHg 23%
    09:00 +19°C° 0 mm 10 mps 753 mmHg 20%
    10:00 +21°C° 0 mm 10 mps 753 mmHg 18%
    11:00 +22°C° 0 mm 10 mps 753 mmHg 15%
    12:00 +22°C° 0 mm 10 mps 753 mmHg 15%
    13:00 +23°C° 0 mm 10 mps 753 mmHg 15%
    14:00 +23°C° 0 mm 10 mps 753 mmHg 14%
    15:00 +23°C° 0 mm 10 mps 753 mmHg 14%
    16:00 +23°C° 0 mm 10 mps 752 mmHg 13%
    17:00 +23°C° 0 mm 11 mps 752 mmHg 13%
    18:00 +23°C° 0 mm 11 mps 753 mmHg 14%
    19:00 +22°C° 0 mm 11 mps 753 mmHg 16%
    20:00 +21°C° 0 mm 11 mps 754 mmHg 18%
    21:00 +19°C° 0 mm 11 mps 755 mmHg 22%
    22:00 +17°C° 0 mm 11 mps 755 mmHg 26%
    23:00 +16°C° 0 mm 11 mps 756 mmHg 29%
    Show more